[[{"header":{"parameterUnit":"m.s-1","parameterCategory":2,"la1":30.2992,"la2":30.254,"lo1":-89.0895,"lo2":-89.0443,"dy":0.0025,"dx":0.0025,"nx":19,"ny":19,"refTime":"2026-03-12T03:00:00:Z","depth":"0","parameterNumber":2,"parameterNumberName":"U-component_of_CURRENTS"},"data":[0,0,0,-0.3119,-0.3121,-0.3212,-0.3212,-0.3288,-0.3289,0,0,0,0,0,0,0,0,0,0,0,-0.3067,-0.3068,-0.3119,-0.3121,-0.3212,-0.3212,-0.3288,-0.3289,0,0,0,0,0,0,0,0,0,0,0,-0.3067,-0.3068,-0.3068,-0.3122,-0.3212,-0.3212,-0.3288,-0.3228,0,0,0,0,0,0,0,0,0,0,-0.3144,-0.3097,-0.3068,-0.3068,-0.3122,-0.3212,-0.3212,-0.3225,-0.3231,-0.3239,0,-0.3246,0,-0.3282,-0.3294,-0.3294,0,0,0,-0.3113,-0.3091,-0.3129,-0.3068,-0.3123,-0.3211,-0.3169,-0.3229,-0.3236,-0.3247,-0.3248,-0.3252,-0.3283,-0.3295,-0.3295,-0.3412,-0.3413,0,0,-0.3108,-0.3073,-0.3124,-0.3133,-0.3138,-0.3166,-0.3171,-0.3234,-0.3228,-0.3248,-0.3254,-0.3284,-0.3295,-0.3296,-0.3411,-0.3412,0,0,0,-0.3099,-0.307,-0.3106,-0.3129,-0.3156,-0.3169,-0.3175,-0.3225,-0.3241,-0.3255,-0.3285,-0.3296,-0.3296,-0.341,-0.3411,-0.3447,0,0,0,-0.3096,-0.3066,-0.3104,-0.3083,-0.3155,-0.3196,-0.3165,-0.3236,-0.3245,-0.3285,-0.3296,-0.3297,-0.341,-0.3411,-0.3444,-0.3458,0,0,0,-0.3065,-0.3063,-0.3073,-0.3081,-0.3128,-0.3197,-0.3215,-0.3238,-0.3264,-0.3294,-0.3297,-0.3409,-0.3411,-0.3442,-0.3454,-0.3502,0,0,0,-0.3027,-0.3046,-0.3072,-0.3113,-0.3127,-0.3226,-0.3215,-0.3276,-0.3305,-0.3296,-0.341,-0.3411,-0.3441,-0.3452,-0.3499,-0.3388,-0.3391,0,0,-0.3036,-0.3045,-0.3077,-0.3105,-0.3195,-0.3213,-0.331,-0.3333,-0.3334,-0.3383,-0.3386,-0.3445,-0.3454,-0.3501,-0.3487,-0.3487,0,0,0,-0.3073,-0.3086,-0.3122,-0.3177,-0.3254,-0.3325,-0.3363,-0.3387,-0.3431,-0.3362,-0.347,-0.3475,-0.3503,-0.3431,-0.3432,-0.3364,-0.3419,-0.3419,-0.3419,-0.301,-0.3083,-0.3139,-0.3232,-0.33,-0.3404,-0.3461,-0.3501,-0.3488,-0.3517,-0.3523,-0.3608,-0.3532,-0.3532,-0.3464,-0.3545,-0.3546,-0.3546,-0.3546,-0.3014,-0.3041,-0.3145,-0.3218,-0.3323,-0.34,-0.354,-0.3557,-0.3636,-0.3597,-0.3623,-0.3495,-0.3534,-0.3462,-0.3549,-0.3548,-0.3548,-0.3547,-0.3547,-0.2957,-0.2978,-0.3037,-0.3146,-0.3255,-0.3384,-0.3496,-0.3598,-0.3655,-0.3697,-0.3613,-0.3611,-0.3531,-0.3702,-0.3702,-0.3703,-0.3703,-0.3703,-0.3703,-0.2848,-0.2921,-0.2942,-0.3076,-0.3126,-0.3252,-0.3466,-0.3546,-0.3633,-0.3651,-0.365,-0.3549,-0.3656,-0.3631,-0.3708,-0.3707,-0.3706,-0.3706,-0.3706,-0.2725,-0.2766,-0.2798,-0.284,-0.2974,-0.3031,-0.3288,-0.3444,-0.3564,-0.3577,-0.3516,-0.3633,-0.3613,-0.361,-0.3584,-0.3645,-0.3645,-0.3645,-0.3645,-0.2592,-0.264,-0.263,-0.2669,-0.2758,-0.2908,-0.2978,-0.3189,-0.3364,-0.3384,-0.3457,-0.3377,-0.3382,-0.3345,-0.3348,-0.3316,-0.3308,-0.3307,-0.3307,-0.2453,-0.2497,-0.2435,-0.2532,-0.2628,-0.272,-0.2746,-0.2961,-0.3206,-0.3292,-0.3392,-0.3407,-0.3289,-0.3303,-0.3241,-0.3251,-0.3198,0,0]},{"header":{"parameterUnit":"m.s-1","parameterCategory":2,"la1":30.2992,"la2":30.254,"lo1":-89.0895,"lo2":-89.0443,"dy":0.0025,"dx":0.0025,"nx":19,"ny":19,"refTime":"2026-03-12T03:00:00:Z","depth":"0","parameterNumber":3,"parameterNumberName":"V-component_of_CURRENTS"},"data":[0,0,0,-0.0459,-0.0457,-0.0319,-0.0318,-0.0121,-0.012,0,0,0,0,0,0,0,0,0,0,0,-0.051,-0.051,-0.0459,-0.0457,-0.0319,-0.0318,-0.0122,-0.012,0,0,0,0,0,0,0,0,0,0,0,-0.0511,-0.051,-0.051,-0.0456,-0.0319,-0.0318,-0.0122,-0.0226,0,0,0,0,0,0,0,0,0,0,-0.0361,-0.0426,-0.051,-0.051,-0.0456,-0.0319,-0.0318,-0.0231,-0.022,-0.0184,0,-0.0178,0,-0.015,-0.0108,-0.0108,0,0,0,-0.0437,-0.0436,-0.0394,-0.051,-0.0455,-0.032,-0.0375,-0.0225,-0.0212,-0.0169,-0.0175,-0.0167,-0.0147,-0.0107,-0.0106,-0.001,-0.001,0,0,-0.0444,-0.0483,-0.0403,-0.0387,-0.0437,-0.038,-0.0371,-0.0217,-0.0214,-0.0174,-0.0163,-0.0144,-0.0106,-0.0104,-0.001,-0.001,0,0,0,-0.048,-0.0489,-0.045,-0.0395,-0.0375,-0.0377,-0.0367,-0.022,-0.0207,-0.016,-0.0142,-0.0105,-0.0103,-0.0009,-0.001,-0.0147,0,0,0,-0.0483,-0.051,-0.0454,-0.0475,-0.0378,-0.0301,-0.0374,-0.0218,-0.0199,-0.0142,-0.0105,-0.0101,-0.0009,-0.001,-0.0142,-0.0229,0,0,0,-0.0514,-0.0513,-0.0502,-0.0478,-0.0426,-0.0303,-0.0279,-0.0213,-0.0188,-0.0107,-0.01,-0.0009,-0.0009,-0.0139,-0.022,-0.0224,0,0,0,-0.0549,-0.0577,-0.0503,-0.0531,-0.0428,-0.0388,-0.028,-0.0231,-0.0175,-0.0104,-0.0009,-0.001,-0.0137,-0.0215,-0.022,-0.0227,-0.0246,0,0,-0.0612,-0.0585,-0.0604,-0.0535,-0.0549,-0.0404,-0.0393,-0.0268,-0.0167,-0.0054,-0.0051,-0.0144,-0.022,-0.0223,-0.0263,-0.0281,0,0,0,-0.0642,-0.0661,-0.0651,-0.0638,-0.0571,-0.0515,-0.0377,-0.0302,-0.0196,-0.0137,-0.0118,-0.0161,-0.0159,-0.0153,-0.0168,0.0216,-0.0013,-0.0013,-0.0012,-0.0765,-0.074,-0.0784,-0.0745,-0.071,-0.0579,-0.0517,-0.0383,-0.027,-0.0243,-0.0253,-0.0328,-0.0324,-0.0335,0.0061,-0.0215,-0.0215,-0.0216,-0.0216,-0.0896,-0.093,-0.0895,-0.0929,-0.0848,-0.081,-0.0643,-0.0547,-0.0432,-0.0345,-0.0334,-0.0275,-0.0359,0.007,-0.0224,-0.0223,-0.0222,-0.0221,-0.022,-0.0992,-0.1009,-0.1022,-0.107,-0.1062,-0.0953,-0.0936,-0.0768,-0.0581,-0.0571,-0.0484,-0.0481,-0.0118,-0.0539,-0.054,-0.054,-0.054,-0.0541,-0.0541,-0.1081,-0.1099,-0.1196,-0.1219,-0.1247,-0.1242,-0.1098,-0.1011,-0.0801,-0.0645,-0.0642,-0.0091,-0.0425,-0.0427,-0.0547,-0.0546,-0.0545,-0.0545,-0.0544,-0.1188,-0.1204,-0.1364,-0.1426,-0.1505,-0.1569,-0.1419,-0.1213,-0.1048,-0.0939,-0.0218,-0.0644,-0.0591,-0.0577,-0.0581,-0.0734,-0.0734,-0.0734,-0.0734,-0.125,-0.1278,-0.1515,-0.166,-0.1754,-0.1724,-0.1728,-0.141,-0.0687,-0.0257,-0.0076,0.005,0.0041,0.0142,0.014,0.0156,0.0194,0.0196,0.0198,-0.131,-0.1396,-0.158,-0.1749,-0.1864,-0.1899,-0.1911,-0.1502,-0.0327,0.0281,0.0465,0.0425,0.066,0.0614,0.0811,0.0777,0.0817,0,0]}],[{"header":{"parameterUnit":"m.s-1","parameterCategory":2,"la1":30.2992,"la2":30.254,"lo1":-89.0895,"lo2":-89.0443,"dy":0.0025,"dx":0.0025,"nx":19,"ny":19,"refTime":"2026-03-12T03:00:00:Z","depth":"2","parameterNumber":2,"parameterNumberName":"U-component_of_CURRENTS"},"data":[0,0,0,-0.3091,-0.3094,-0.3185,-0.3186,-0.3263,-0.3263,0,0,0,0,0,0,0,0,0,0,0,-0.304,-0.304,-0.3091,-0.3094,-0.3185,-0.3186,-0.3263,-0.3263,0,0,0,0,0,0,0,0,0,0,0,-0.304,-0.304,-0.3041,-0.3094,-0.3185,-0.3186,-0.3262,-0.3201,0,0,0,0,0,0,0,0,0,0,-0.3117,-0.307,-0.304,-0.3041,-0.3095,-0.3185,-0.3186,-0.3199,-0.3205,-0.3212,0,-0.322,0,-0.3255,-0.3268,-0.3269,0,0,0,-0.3086,-0.3064,-0.3102,-0.3041,-0.3096,-0.3185,-0.3142,-0.3203,-0.321,-0.3221,-0.3221,-0.3225,-0.3257,-0.3269,-0.3269,-0.3385,-0.3385,0,0,-0.3081,-0.3047,-0.3097,-0.3106,-0.3111,-0.3139,-0.3145,-0.3207,-0.3202,-0.3222,-0.3228,-0.3258,-0.3269,-0.327,-0.3384,-0.3385,0,0,0,-0.3072,-0.3043,-0.3079,-0.3102,-0.3129,-0.3142,-0.3148,-0.3199,-0.3215,-0.3229,-0.3259,-0.327,-0.3271,-0.3383,-0.3384,-0.342,0,0,0,-0.3068,-0.3039,-0.3077,-0.3056,-0.3128,-0.317,-0.3138,-0.321,-0.3219,-0.3259,-0.327,-0.3271,-0.3382,-0.3384,-0.3417,-0.3431,0,0,0,-0.3037,-0.3036,-0.3046,-0.3054,-0.3102,-0.317,-0.3189,-0.3212,-0.3238,-0.3269,-0.3272,-0.3382,-0.3384,-0.3415,-0.3427,-0.3473,0,0,0,-0.3,-0.3019,-0.3045,-0.3085,-0.3101,-0.3198,-0.3189,-0.325,-0.3279,-0.327,-0.3383,-0.3384,-0.3414,-0.3425,-0.3471,-0.3333,-0.3334,0,0,-0.3009,-0.3018,-0.3049,-0.3077,-0.3166,-0.3185,-0.3281,-0.3306,-0.3307,-0.3356,-0.3359,-0.3418,-0.3427,-0.3473,-0.343,-0.3428,0,0,0,-0.3045,-0.3058,-0.3093,-0.3148,-0.3224,-0.3295,-0.3334,-0.3359,-0.3404,-0.3335,-0.3443,-0.3447,-0.3475,-0.3387,-0.3386,-0.3392,-0.3392,-0.3392,-0.3392,-0.2983,-0.3055,-0.311,-0.3201,-0.3269,-0.3373,-0.343,-0.347,-0.3459,-0.3488,-0.3494,-0.3578,-0.3486,-0.3483,-0.3517,-0.3517,-0.3517,-0.3517,-0.3517,-0.2986,-0.3012,-0.3115,-0.3187,-0.3291,-0.3368,-0.3507,-0.3525,-0.3605,-0.3568,-0.3593,-0.3451,-0.3483,-0.352,-0.352,-0.3519,-0.3519,-0.3519,-0.3519,-0.293,-0.2949,-0.3009,-0.3116,-0.3224,-0.3353,-0.3464,-0.3565,-0.3623,-0.3665,-0.3565,-0.3562,-0.359,-0.3671,-0.3672,-0.3672,-0.3672,-0.3672,-0.3673,-0.2819,-0.2891,-0.2915,-0.3046,-0.3096,-0.3221,-0.3434,-0.3513,-0.3589,-0.3599,-0.3598,-0.3631,-0.3625,-0.3601,-0.3677,-0.3676,-0.3676,-0.3675,-0.3675,-0.2696,-0.2738,-0.277,-0.2813,-0.2945,-0.2968,-0.3246,-0.339,-0.3514,-0.3519,-0.3568,-0.3569,-0.3546,-0.3544,-0.3518,-0.3569,-0.3569,-0.3569,-0.3569,-0.2565,-0.2613,-0.2604,-0.2643,-0.273,-0.2835,-0.2815,-0.2872,-0.3091,-0.3097,-0.3116,-0.3012,-0.3028,-0.297,-0.2981,-0.2941,-0.2841,-0.2839,-0.2838,-0.2431,-0.247,-0.2411,-0.2506,-0.26,-0.2615,-0.2452,-0.2254,-0.2408,-0.28,-0.2894,-0.3538,-0.3437,-0.3442,-0.3393,-0.3396,-0.3348,0,0]},{"header":{"parameterUnit":"m.s-1","parameterCategory":2,"la1":30.2992,"la2":30.254,"lo1":-89.0895,"lo2":-89.0443,"dy":0.0025,"dx":0.0025,"nx":19,"ny":19,"refTime":"2026-03-12T03:00:00:Z","depth":"2","parameterNumber":3,"parameterNumberName":"V-component_of_CURRENTS"},"data":[0,0,0,-0.0405,-0.0403,-0.0267,-0.0267,-0.0071,-0.0069,0,0,0,0,0,0,0,0,0,0,0,-0.0455,-0.0455,-0.0405,-0.0402,-0.0267,-0.0266,-0.0071,-0.0069,0,0,0,0,0,0,0,0,0,0,0,-0.0456,-0.0455,-0.0455,-0.0402,-0.0268,-0.0266,-0.0072,-0.0175,0,0,0,0,0,0,0,0,0,0,-0.0307,-0.0372,-0.0455,-0.0455,-0.0401,-0.0268,-0.0266,-0.018,-0.0168,-0.0132,0,-0.0126,0,-0.0099,-0.0058,-0.0057,0,0,0,-0.0382,-0.0382,-0.034,-0.0455,-0.04,-0.0268,-0.0323,-0.0173,-0.016,-0.0117,-0.0123,-0.0116,-0.0096,-0.0057,-0.0056,0.0041,0.0041,0,0,-0.039,-0.0428,-0.0349,-0.0333,-0.0383,-0.0327,-0.0319,-0.0165,-0.0162,-0.0122,-0.0111,-0.0093,-0.0055,-0.0054,0.0041,0.0041,0,0,0,-0.0425,-0.0434,-0.0396,-0.0341,-0.0321,-0.0324,-0.0314,-0.0169,-0.0156,-0.0109,-0.009,-0.0054,-0.0052,0.0041,0.0041,-0.0096,0,0,0,-0.0428,-0.0455,-0.04,-0.0421,-0.0325,-0.0249,-0.0321,-0.0166,-0.0148,-0.0091,-0.0054,-0.0051,0.0042,0.0041,-0.0091,-0.0177,0,0,0,-0.0458,-0.0458,-0.0447,-0.0423,-0.0373,-0.0251,-0.0227,-0.0161,-0.0137,-0.0057,-0.005,0.0042,0.0041,-0.0087,-0.0169,-0.0172,0,0,0,-0.0494,-0.0521,-0.0449,-0.0476,-0.0374,-0.0335,-0.0228,-0.018,-0.0124,-0.0053,0.0042,0.0041,-0.0086,-0.0164,-0.0168,-0.0169,-0.0187,0,0,-0.0555,-0.0529,-0.0547,-0.048,-0.0494,-0.0351,-0.0339,-0.0216,-0.0116,-0.0003,0.0,-0.0093,-0.0168,-0.0172,-0.0204,-0.0222,0,0,0,-0.0585,-0.0603,-0.0594,-0.0581,-0.0515,-0.046,-0.0323,-0.0249,-0.0144,-0.0086,-0.0067,-0.011,-0.0107,-0.0098,-0.0112,0.0038,0.0038,0.0038,0.0038,-0.0706,-0.0681,-0.0725,-0.0686,-0.0652,-0.0522,-0.0461,-0.0329,-0.0217,-0.0191,-0.0201,-0.0275,-0.0267,-0.0278,-0.0162,-0.0163,-0.0163,-0.0164,-0.0164,-0.0835,-0.0868,-0.0835,-0.0868,-0.0789,-0.0751,-0.0586,-0.0492,-0.0378,-0.0292,-0.0281,-0.0219,-0.0301,-0.0174,-0.0172,-0.0171,-0.017,-0.0169,-0.0168,-0.093,-0.0944,-0.096,-0.1008,-0.1001,-0.0894,-0.0877,-0.0712,-0.0527,-0.0517,-0.0427,-0.0424,-0.0359,-0.0486,-0.0486,-0.0487,-0.0487,-0.0488,-0.0488,-0.1013,-0.1033,-0.1133,-0.1156,-0.1185,-0.118,-0.1039,-0.0953,-0.0742,-0.0586,-0.0584,-0.0383,-0.0372,-0.0375,-0.0494,-0.0493,-0.0492,-0.0492,-0.0491,-0.1116,-0.1135,-0.1295,-0.136,-0.1441,-0.1473,-0.1349,-0.1144,-0.0986,-0.0877,-0.0587,-0.0583,-0.0529,-0.0516,-0.052,-0.0669,-0.0669,-0.0669,-0.0669,-0.1175,-0.1205,-0.1444,-0.1592,-0.1687,-0.1618,-0.1568,-0.1235,-0.0873,-0.0643,-0.0643,-0.0578,-0.0572,-0.0515,-0.0501,-0.0502,-0.0647,-0.0647,-0.0647,-0.1237,-0.1319,-0.1507,-0.1679,-0.1796,-0.176,-0.1652,-0.1202,-0.0685,-0.0643,-0.0606,-0.0674,-0.0577,-0.0568,-0.0472,-0.0454,-0.0451,0,0]}],[{"header":{"parameterUnit":"m.s-1","parameterCategory":2,"la1":30.2992,"la2":30.254,"lo1":-89.0895,"lo2":-89.0443,"dy":0.0025,"dx":0.0025,"nx":19,"ny":19,"refTime":"2026-03-12T03:00:00:Z","depth":"4","parameterNumber":2,"parameterNumberName":"U-component_of_CURRENTS"},"data":[0,0,0,-0.2042,-0.2046,-0.2265,-0.2266,-0.245,-0.2451,0,0,0,0,0,0,0,0,0,0,0,-0.1966,-0.1968,-0.2042,-0.2047,-0.2265,-0.2266,-0.2449,-0.2451,0,0,0,0,0,0,0,0,0,0,0,-0.1966,-0.1967,-0.1969,-0.2048,-0.2265,-0.2266,-0.2449,-0.231,0,0,0,0,0,0,0,0,0,0,-0.211,-0.2055,-0.1967,-0.1969,-0.2049,-0.2265,-0.2266,-0.2304,-0.2318,-0.2321,0,-0.2358,0,-0.2404,-0.246,-0.2461,0,0,0,-0.2054,-0.2044,-0.2098,-0.197,-0.2051,-0.2264,-0.2169,-0.2313,-0.2329,-0.2339,-0.2361,-0.2369,-0.2408,-0.2461,-0.2462,-0.2631,-0.2631,0,0,-0.2042,-0.2011,-0.2087,-0.2108,-0.2111,-0.2162,-0.2175,-0.2324,-0.2342,-0.2362,-0.2374,-0.2411,-0.2462,-0.2463,-0.263,-0.2631,0,0,0,-0.2003,-0.2002,-0.2055,-0.2099,-0.2145,-0.2168,-0.2184,-0.2336,-0.2353,-0.2376,-0.2413,-0.2463,-0.2465,-0.2629,-0.263,-0.2676,0,0,0,-0.1996,-0.1979,-0.2049,-0.2033,-0.2143,-0.2257,-0.2192,-0.2342,-0.2361,-0.2412,-0.2463,-0.2466,-0.2628,-0.263,-0.2673,-0.268,0,0,0,-0.1956,-0.1975,-0.2,-0.2031,-0.2122,-0.2256,-0.2283,-0.2348,-0.2382,-0.2461,-0.2466,-0.2628,-0.2629,-0.267,-0.2676,-0.2717,0,0,0,-0.1915,-0.1954,-0.1999,-0.2066,-0.212,-0.226,-0.2283,-0.2402,-0.2474,-0.2464,-0.2628,-0.263,-0.2669,-0.2674,-0.2715,-0.2349,0,0,0,-0.1934,-0.1956,-0.1996,-0.2042,-0.2159,-0.223,-0.2369,-0.2471,-0.25,-0.2571,-0.2577,-0.2674,-0.2676,-0.2717,-0.2465,0,0,0,0,-0.1983,-0.2009,-0.2055,-0.2141,-0.2246,-0.2365,-0.2471,-0.2523,-0.2631,-0.2551,-0.27,-0.27,-0.2724,-0.2504,-0.2639,-0.2639,-0.2639,-0.2639,-0.2639,-0.1944,-0.2018,-0.2096,-0.2205,-0.2305,-0.2471,-0.2567,-0.2657,-0.2678,-0.2737,-0.2757,-0.2844,-0.2616,-0.2786,-0.2786,-0.2787,-0.2787,-0.2787,-0.2787,-0.1948,-0.1972,-0.2114,-0.2215,-0.236,-0.2488,-0.2669,-0.2724,-0.2846,-0.2832,-0.2854,-0.2592,-0.2792,-0.2791,-0.279,-0.279,-0.2789,-0.2789,-0.2789,-0.1876,-0.1892,-0.1999,-0.2153,-0.2323,-0.2504,-0.263,-0.2781,-0.2874,-0.2923,-0.2692,-0.2881,-0.2854,-0.2942,-0.2942,-0.2942,-0.2943,-0.2943,-0.2943,-0.1719,-0.1827,-0.1886,-0.2083,-0.219,-0.2361,-0.2621,-0.2689,-0.2833,-0.2703,-0.294,-0.2897,-0.2891,-0.2864,-0.2947,-0.2946,-0.2946,-0.2945,-0.2945,-0.1566,-0.1636,-0.1699,-0.1799,-0.2026,-0.2142,-0.2431,-0.2505,-0.2556,-0.2512,-0.2584,-0.2601,-0.2548,-0.2552,-0.2509,-0.2491,-0.2487,-0.2482,0,-0.1437,-0.1479,-0.1522,-0.1611,-0.1729,-0.1989,-0.1987,-0.2128,-0.227,-0.219,-0.2552,-0.2631,-0.2641,-0.258,-0.2576,-0.2523,0,0,0,-0.1331,-0.1358,-0.1333,-0.1447,-0.1581,-0.1738,-0.1971,-0.1939,-0.2252,-0.2199,-0.2372,-0.2401,-0.2718,-0.2958,-0.2918,-0.2912,-0.2864,0,0]},{"header":{"parameterUnit":"m.s-1","parameterCategory":2,"la1":30.2992,"la2":30.254,"lo1":-89.0895,"lo2":-89.0443,"dy":0.0025,"dx":0.0025,"nx":19,"ny":19,"refTime":"2026-03-12T03:00:00:Z","depth":"4","parameterNumber":3,"parameterNumberName":"V-component_of_CURRENTS"},"data":[0,0,0,-0.0068,-0.0067,-0.0002,-0.0001,0.0118,0.0119,0,0,0,0,0,0,0,0,0,0,0,-0.0092,-0.0092,-0.0068,-0.0067,-0.0002,-0.0001,0.0117,0.0119,0,0,0,0,0,0,0,0,0,0,0,-0.0093,-0.0092,-0.0092,-0.0067,-0.0002,-0.0001,0.0117,0.0063,0,0,0,0,0,0,0,0,0,0,-0.0004,-0.0039,-0.0092,-0.0092,-0.0067,-0.0002,-0.0001,0.006,0.0066,0.0094,0,0.0092,0,0.0104,0.0126,0.0126,0,0,0,-0.0053,-0.0045,-0.0027,-0.0092,-0.0066,-0.0002,-0.0027,0.0063,0.007,0.0102,0.0094,0.0098,0.0106,0.0127,0.0127,0.0179,0.0179,0,0,-0.0056,-0.0076,-0.0032,-0.0023,-0.0063,-0.0029,-0.0025,0.0067,0.0069,0.0095,0.0101,0.0108,0.0128,0.0128,0.0179,0.0179,0,0,0,-0.0076,-0.0078,-0.0063,-0.0028,-0.0021,-0.0028,-0.0023,0.0065,0.007,0.0102,0.0109,0.0128,0.013,0.0179,0.0179,0.0065,0,0,0,-0.0078,-0.0091,-0.0065,-0.0075,-0.0024,0.0017,-0.0027,0.0064,0.0074,0.0109,0.0128,0.0131,0.018,0.0179,0.0068,-0.0006,0,0,0,-0.0093,-0.0092,-0.0089,-0.0076,-0.0054,0.0016,0.0027,0.0066,0.0078,0.0127,0.0131,0.018,0.0179,0.0072,0.0001,-0.0015,0,0,0,-0.0107,-0.013,-0.009,-0.0118,-0.0055,-0.0052,0.0026,0.0043,0.0075,0.0129,0.018,0.0179,0.0073,0.0006,-0.0011,-0.0032,0,0,0,-0.0148,-0.0135,-0.0154,-0.0118,-0.0152,-0.0059,-0.0074,0.0004,0.0079,0.0155,0.0157,0.0067,0.0002,-0.0014,-0.0069,0,0,0,0,-0.0176,-0.0194,-0.0197,-0.0206,-0.018,-0.0166,-0.0078,-0.0029,0.0036,0.0094,0.0086,0.0049,0.0043,0.0042,0.0176,0.0176,0.0176,0.0176,0.0176,-0.0242,-0.0246,-0.0295,-0.0297,-0.0293,-0.0229,-0.0202,-0.0115,-0.0028,-0.0014,-0.003,-0.0104,-0.0108,0.0003,0.0002,0.0001,0.0001,0.0001,0.0,-0.0328,-0.0353,-0.0379,-0.0429,-0.0411,-0.0408,-0.0319,-0.0253,-0.0187,-0.0112,-0.011,-0.0061,-0.001,-0.0008,-0.0007,-0.0005,-0.0004,-0.0004,-0.0003,-0.0361,-0.0374,-0.0425,-0.0513,-0.0559,-0.0525,-0.0546,-0.0444,-0.0312,-0.0314,-0.026,-0.0173,-0.0178,-0.0292,-0.0293,-0.0293,-0.0294,-0.0294,-0.0294,-0.0355,-0.041,-0.0503,-0.0596,-0.0669,-0.0719,-0.0674,-0.0621,-0.0484,-0.0406,-0.0341,-0.0202,-0.0193,-0.0193,-0.0301,-0.03,-0.0299,-0.0298,-0.0298,-0.0361,-0.0407,-0.0547,-0.0646,-0.0821,-0.0866,-0.0843,-0.0719,-0.0661,-0.0562,-0.0426,-0.0418,-0.0374,-0.036,-0.0364,-0.0527,-0.0528,-0.0529,0,-0.0363,-0.0394,-0.059,-0.0759,-0.0907,-0.095,-0.0919,-0.0836,-0.0657,-0.0652,-0.0632,-0.0485,-0.0475,-0.0429,-0.0417,-0.0426,0,0,0,-0.0382,-0.0445,-0.0576,-0.076,-0.0949,-0.093,-0.0906,-0.0856,-0.0695,-0.0627,-0.0546,-0.0542,-0.0431,-0.032,-0.0232,-0.022,-0.0216,0,0]}]]